DAL326 KLIT-KDFW

Flight info

Callsign DAL326
Flight time N/A
Altitude 34000
Route LIT MEEOW FEWWW SEEVR4
Aircraft B712/M-SDFGHRWY/C

Departure

Time 2026-04-17 17:40
Airport Bill & Hillary Clinton National Airport/Adams Field (KLIT)

Arrival

Time N/A
Airport Dallas Fort Worth International Airport (KDFW)
Time Latitude Longitude Altitude Speed Heading
2026-04-17 16:58 34.72938 -92.22082 271 ft 0 kts 109°
2026-04-17 17:21 34.72941 -92.22092 271 ft 3 kts 109°
2026-04-17 17:21 34.72947 -92.22115 271 ft 3 kts 108°
2026-04-17 17:22 34.72953 -92.22138 271 ft 3 kts 108°
2026-04-17 17:22 34.72960 -92.22162 271 ft 3 kts 108°
2026-04-17 17:22 34.72965 -92.22181 271 ft 1 kts 109°
2026-04-17 17:22 34.72965 -92.22183 271 ft 0 kts 109°
2026-04-17 17:30 34.72963 -92.22175 271 ft 2 kts 109°
2026-04-17 17:31 34.72964 -92.22159 271 ft 2 kts 59°
2026-04-17 17:31 34.72974 -92.22154 271 ft 2 kts 11°
2026-04-17 17:31 34.72993 -92.22149 271 ft 4 kts 11°
2026-04-17 17:31 34.73027 -92.22145 271 ft 6 kts 354°
2026-04-17 17:32 34.73067 -92.22174 271 ft 8 kts 307°
2026-04-17 17:32 34.73090 -92.22239 271 ft 9 kts 291°
2026-04-17 17:32 34.73115 -92.22316 271 ft 10 kts 291°
2026-04-17 17:32 34.73137 -92.22383 271 ft 4 kts 291°
2026-04-17 17:33 34.73141 -92.22394 271 ft 0 kts 291°
2026-04-17 17:34 34.73145 -92.22406 271 ft 2 kts 293°
2026-04-17 17:34 34.73153 -92.22416 271 ft 2 kts 328°
2026-04-17 17:34 34.73165 -92.22419 271 ft 2 kts 357°
2026-04-17 17:35 34.73179 -92.22414 271 ft 2 kts 27°
2026-04-17 17:35 34.73196 -92.22398 271 ft 4 kts 41°
2026-04-17 17:35 34.73215 -92.22376 271 ft 4 kts 44°
2026-04-17 17:35 34.73236 -92.22350 271 ft 5 kts 46°
2026-04-17 17:36 34.73258 -92.22321 271 ft 5 kts 46°
2026-04-17 17:36 34.73283 -92.22289 271 ft 6 kts 46°
2026-04-17 17:36 34.73317 -92.22246 271 ft 8 kts 46°
2026-04-17 17:36 34.73362 -92.22188 271 ft 11 kts 46°
2026-04-17 17:37 34.73420 -92.22114 271 ft 14 kts 46°
2026-04-17 17:37 34.73492 -92.22022 271 ft 16 kts 46°
2026-04-17 17:37 34.73564 -92.21931 271 ft 12 kts 46°
2026-04-17 17:37 34.73617 -92.21863 271 ft 11 kts 46°
2026-04-17 17:38 34.73671 -92.21795 271 ft 12 kts 46°
2026-04-17 17:38 34.73730 -92.21745 271 ft 10 kts
2026-04-17 17:38 34.73779 -92.21784 271 ft 8 kts 307°
2026-04-17 17:38 34.73785 -92.21838 271 ft 6 kts 245°
2026-04-17 17:39 34.73757 -92.21877 271 ft 13 kts 228°
2026-04-17 17:39 34.73548 -92.22150 271 ft 77 kts 226°
2026-04-17 17:39 34.73034 -92.22801 271 ft 134 kts 227°
2026-04-17 17:39 34.72343 -92.23660 696 ft 142 kts 227°
2026-04-17 17:40 34.71660 -92.24586 1213 ft 156 kts 236°
2026-04-17 17:40 34.71186 -92.25871 1642 ft 176 kts 255°
2026-04-17 17:40 34.71161 -92.27375 2209 ft 184 kts 277°
2026-04-17 17:40 34.71311 -92.28933 2717 ft 187 kts 265°
2026-04-17 17:41 34.71247 -92.30551 3169 ft 196 kts 262°
2026-04-17 17:41 34.71169 -92.32262 3554 ft 211 kts 262°
2026-04-17 17:41 34.71064 -92.34113 3879 ft 228 kts 260°
2026-04-17 17:41 34.70782 -92.36085 4165 ft 246 kts 252°
2026-04-17 17:42 34.70255 -92.38124 4554 ft 258 kts 245°
2026-04-17 17:42 34.69541 -92.40106 5314 ft 253 kts 240°
2026-04-17 17:42 34.68761 -92.41986 6209 ft 248 kts 242°
2026-04-17 17:42 34.68118 -92.43943 6886 ft 253 kts 244°
2026-04-17 17:43 34.67482 -92.45998 7318 ft 266 kts 246°
2026-04-17 17:43 34.66843 -92.48127 7944 ft 269 kts 246°
2026-04-17 17:43 34.66176 -92.50264 8588 ft 273 kts 245°
2026-04-17 17:43 34.65461 -92.52393 9192 ft 276 kts 243°
2026-04-17 17:44 34.64714 -92.54539 9936 ft 276 kts 244°
2026-04-17 17:44 34.63977 -92.56715 10469 ft 286 kts 245°
2026-04-17 17:44 34.63200 -92.59037 10584 ft 308 kts 245°
2026-04-17 17:44 34.62373 -92.61528 10680 ft 328 kts 246°
2026-04-17 17:45 34.61497 -92.64170 10775 ft 345 kts 246°
2026-04-17 17:45 34.60589 -92.66908 11100 ft 353 kts 246°
2026-04-17 17:45 34.59668 -92.69681 11602 ft 355 kts 246°
2026-04-17 17:45 34.58742 -92.72468 12152 ft 356 kts 246°
2026-04-17 17:46 34.57813 -92.75258 12655 ft 358 kts 246°
2026-04-17 17:46 34.56877 -92.78069 13181 ft 360 kts 246°
2026-04-17 17:46 34.55934 -92.80894 13690 ft 362 kts 246°
2026-04-17 17:46 34.54986 -92.83733 14202 ft 365 kts 246°
2026-04-17 17:47 34.54341 -92.85665 14544 ft 366 kts 246°
2026-04-17 17:47 34.53069 -92.89467 15210 ft 369 kts 247°
2026-04-17 17:47 34.52416 -92.91419 15570 ft 369 kts 247°
2026-04-17 17:47 34.51459 -92.94278 16018 ft 372 kts 247°
2026-04-17 17:48 34.50483 -92.97188 16512 ft 374 kts 247°
2026-04-17 17:48 34.49498 -93.00122 16940 ft 376 kts 247°
2026-04-17 17:48 34.48510 -93.03061 17413 ft 378 kts 247°
2026-04-17 17:48 34.47513 -93.06027 17850 ft 380 kts 247°
2026-04-17 17:49 34.46513 -93.08997 18269 ft 382 kts 247°
2026-04-17 17:49 34.45506 -93.11986 18653 ft 384 kts 247°
2026-04-17 17:49 34.44494 -93.14986 19087 ft 385 kts 247°
2026-04-17 17:49 34.43477 -93.17999 19491 ft 387 kts 247°
2026-04-17 17:50 34.42456 -93.21019 19884 ft 388 kts 247°
2026-04-17 17:50 34.41431 -93.24051 20264 ft 389 kts 247°
2026-04-17 17:50 34.40403 -93.27088 20638 ft 390 kts 248°
2026-04-17 17:50 34.39366 -93.30148 21008 ft 391 kts 248°
2026-04-17 17:51 34.38335 -93.33185 21360 ft 393 kts 248°
2026-04-17 17:51 34.37295 -93.36250 21699 ft 394 kts 248°
2026-04-17 17:51 34.36249 -93.39326 22007 ft 396 kts 248°
2026-04-17 17:51 34.35202 -93.42404 22372 ft 396 kts 248°
2026-04-17 17:52 34.34152 -93.45488 22684 ft 397 kts 248°
2026-04-17 17:52 34.33097 -93.48581 22997 ft 398 kts 248°
2026-04-17 17:52 34.32043 -93.51686 23296 ft 399 kts 248°
2026-04-17 17:52 34.31021 -93.54809 23628 ft 399 kts 249°
2026-04-17 17:53 34.30011 -93.57940 23914 ft 400 kts 249°
2026-04-17 17:53 34.29001 -93.61074 24188 ft 401 kts 249°
2026-04-17 17:53 34.27986 -93.64221 24449 ft 402 kts 249°
2026-04-17 17:53 34.26968 -93.67374 24683 ft 404 kts 249°
2026-04-17 17:54 34.25943 -93.70544 24937 ft 404 kts 249°
2026-04-17 17:54 34.24917 -93.73714 25170 ft 406 kts 249°
2026-04-17 17:54 34.23886 -93.76895 25412 ft 406 kts 249°
2026-04-17 17:54 34.22855 -93.80075 25633 ft 407 kts 249°
2026-04-17 17:55 34.21819 -93.83264 25874 ft 408 kts 249°
2026-04-17 17:55 34.20784 -93.86450 26096 ft 409 kts 249°
2026-04-17 17:55 34.19753 -93.89655 26282 ft 410 kts 250°
2026-04-17 17:55 34.18750 -93.92878 26560 ft 409 kts 250°
2026-04-17 17:56 34.17775 -93.96059 26752 ft 410 kts 250°
2026-04-17 17:56 34.16787 -93.99289 27038 ft 408 kts 250°
2026-04-17 17:56 34.15803 -94.02505 27289 ft 408 kts 250°
2026-04-17 17:56 34.14818 -94.05720 27593 ft 406 kts 250°
2026-04-17 17:57 34.13837 -94.08917 27851 ft 406 kts 250°
2026-04-17 17:57 34.12859 -94.12100 28166 ft 404 kts 250°
2026-04-17 17:57 34.11882 -94.15279 28445 ft 403 kts 250°
2026-04-17 17:57 34.10908 -94.18445 28739 ft 402 kts 250°
2026-04-17 17:58 34.09936 -94.21599 29051 ft 400 kts 250°
2026-04-17 17:58 34.08967 -94.24740 29324 ft 399 kts 250°
2026-04-17 17:58 34.08000 -94.27872 29641 ft 398 kts 250°
2026-04-17 17:58 34.07034 -94.30997 29926 ft 396 kts 250°
2026-04-17 17:59 34.06073 -94.34104 30230 ft 395 kts 250°
2026-04-17 17:59 34.05114 -94.37202 30531 ft 393 kts 250°
2026-04-17 17:59 34.04156 -94.40292 30814 ft 393 kts 250°
2026-04-17 17:59 34.03201 -94.43368 31124 ft 391 kts 250°
2026-04-17 18:00 34.02248 -94.46436 31411 ft 390 kts 250°
2026-04-17 18:00 34.01297 -94.49492 31709 ft 388 kts 250°
2026-04-17 18:00 34.00350 -94.52535 32008 ft 387 kts 250°
2026-04-17 18:00 33.99417 -94.55530 32276 ft 386 kts 250°
2026-04-17 18:01 33.98473 -94.58556 32531 ft 386 kts 250°
2026-04-17 18:01 33.97529 -94.61579 32790 ft 385 kts 250°
2026-04-17 18:01 33.96586 -94.64598 33047 ft 384 kts 250°
2026-04-17 18:01 33.95645 -94.67605 33356 ft 382 kts 250°
2026-04-17 18:02 33.94708 -94.70598 33604 ft 382 kts 250°
2026-04-17 18:02 33.93771 -94.73586 33846 ft 381 kts 250°
2026-04-17 18:02 33.92835 -94.76568 33957 ft 380 kts 250°